Location: Zagreb
(45.8000°N, 16.0000°E)
Time: 01:46:00
(UTC+01:00)

S-56A Canister/Altair - Pass Details

Date: 07 October 2020
Orbit: 633 x 2499 km, 38.9° (Epoch: 25 October)

Event Time Altitude Azimuth Distance (km) Brightness Sun altitude
Rises 20:43:33 0° 279° (W) 6,046 13.4 -24.8°
Reaches altitude 10° 20:52:31 10° 249° (WSW) 4,661 12.1 -26.3°
Maximum altitude 20:54:57 11° 238° (WSW) 4,461 11.8 -26.7°
Drops below altitude 10° 20:57:15 10° 227° (SW) 4,375 11.6 -27.1°
Sets 21:04:28 0° 193° (SSW) 4,829 11.5 -28.3°
